EW6288 Weather Reports


Display with metric or nautical units.
time (UTC)temp
F
wind
direction
speed
MPH
gust
MPH
rain 1hr
in
rain 24hr
in
rain mn
in
humidity
%
barometer
mb
20260503203307 79 205 1.0 5.0 0.00 0.00 0.00 47 1019.3
20260503202804 81 69 2.0 5.0 0.00 0.00 0.00 40 1019.4
20260503202305 81 46 1.0 5.0 0.00 0.00 0.00 43 1019.6
20260503201804 81 27 2.0 4.0 0.00 0.00 0.00 40 1019.7
20260503201258 81 108 3.0 6.0 0.00 0.00 0.00 44 1019.7
20260503200757 81 166 2.0 6.0 0.00 0.00 0.00 37 1019.9
20260503200526 80 275 2.0 6.0 0.00 0.00 0.00 43 1019.8
20260503195749 80 144 2.0 6.0 0.00 0.00 0.00 40 1020.0
20260503195250 81 147 1.0 6.0 0.00 0.00 0.00 38 1020.0
20260503194750 81 134 1.0 8.0 0.00 0.00 0.00 40 1020.0
20260503194520 80 74 2.0 9.0 0.00 0.00 0.00 40 1020.1
20260503193750 80 159 1.0 9.0 0.00 0.00 0.00 40 1020.2
20260503193249 80 132 3.0 9.0 0.00 0.00 0.00 38 1020.2
20260503192745 81 129 2.0 9.0 0.00 0.00 0.00 43 1020.3
20260503192246 81 136 1.0 6.0 0.00 0.00 0.00 40 1020.4
20260503191746 80 144 2.0 5.0 0.00 0.00 0.00 41 1020.6
20260503191248 80 105 2.0 5.0 0.00 0.00 0.00 39 1020.6
20260503191015 80 137 1.0 5.0 0.00 0.00 0.00 38 1020.6
20260503190245 80 111 2.0 5.0 0.00 0.00 0.00 41 1020.8
20260503190014 80 115 2.0 6.0 0.00 0.00 0.00 40 1020.9
20260503185244 80 117 2.0 7.0 0.00 0.00 0.00 42 1020.9
20260503185015 79 131 2.0 7.0 0.00 0.00 0.00 41 1021.0
20260503184241 79 134 1.0 4.0 0.00 0.00 0.00 40 1021.1
20260503183744 79 131 2.0 7.0 0.00 0.00 0.00 41 1021.1
20260503183242 79 62 2.0 7.0 0.00 0.00 0.00 41 1021.2
20260503182739 80 155 2.0 7.0 0.00 0.00 0.00 43 1021.2
20260503182239 79 111 2.0 8.0 0.00 0.00 0.00 41 1021.2
20260503181742 79 122 1.0 8.0 0.00 0.00 0.00 46 1021.3
20260503181237 79 141 1.0 8.0 0.00 0.00 0.00 43 1021.5
20260503180737 79 99 2.0 8.0 0.00 0.00 0.00 44 1021.6
20260503180238 79 140 2.0 9.0 0.00 0.00 0.00 40 1021.6
20260503175736 79 122 1.0 9.0 0.00 0.00 0.00 42 1021.7
20260503175507 79 109 1.0 4.0 0.00 0.00 0.00 45 1021.8
20260503175009 78 166 1.0 9.0 0.00 0.00 0.00 46 1021.9
20260503174236 78 167 1.0 9.0 0.00 0.00 0.00 44 1022.1
20260503173738 78 47 2.0 9.0 0.00 0.00 0.00 43 1022.1
20260503173508 78 5 2.0 9.0 0.00 0.00 0.00 43 1022.2
20260503172732 78 121 1.0 5.0 0.00 0.00 0.00 46 1022.3
20260503172231 78 51 2.0 5.0 0.00 0.00 0.00 46 1022.4
20260503171731 78 159 2.0 6.0 0.00 0.00 0.00 45 1022.4
20260503171503 78 122 2.0 6.0 0.00 0.00 0.00 45 1022.5
20260503170730 77 291 2.0 5.0 0.00 0.00 0.00 46 1022.5
20260503170230 77 218 1.0 5.0 0.00 0.00 0.00 46 1022.5
20260503160217 74 98 1.0 7.0 0.00 0.00 0.00 53 1022.7
20260503150704 67 157 2.0 7.0 0.00 0.00 0.00 71 1022.6
20260503150159 67 124 2.0 5.0 0.00 0.00 0.00 73 1022.6
20260503140141 62 136 0.0 2.0 0.00 0.00 0.00 88 1022.3
20260503131125 59 136 0.0 0.0 0.00 0.00 0.00 86 1022.0
20260503130626 58 136 0.0 0.0 0.00 0.00 0.00 86 1022.0
20260503130124 58 136 0.0 0.0 0.00 0.00 0.00 86 1022.0
20260503120117 57 136 0.0 0.0 0.00 0.00 0.00 85 1021.5
20260503110612 58 136 0.0 0.0 0.00 0.00 0.00 85 1021.1
20260503110110 58 136 0.0 0.0 0.00 0.00 0.00 85 1021.0
20260503081538 60 178 0.0 0.0 0.00 0.00 0.00 82 1020.6
20260503081040 60 178 0.0 0.0 0.00 0.00 0.00 82 1020.5
20260503080541 60 178 0.0 0.0 0.00 0.00 0.00 82 1020.7
20260503080312 60 178 0.0 0.0 0.00 0.00 0.00 82 1020.6
20260503072540 60 178 0.0 0.0 0.00 0.00 0.00 81 1020.5
20260503072031 60 178 0.0 0.0 0.00 0.00 0.00 81 1020.5
20260503071536 60 178 0.0 0.0 0.00 0.00 0.00 81 1020.6
20260503071530 60 178 0.0 0.0 0.00 0.00 0.00 81 1020.5
20260503070530 60 178 0.0 0.0 0.00 0.00 0.00 81 1020.7
20260503055003 61 178 0.0 0.0 0.00 0.00 0.00 79 1020.7
20260503054504 61 178 0.0 0.0 0.00 0.00 0.00 79 1020.8
20260503053959 62 178 0.0 0.0 0.00 0.00 0.00 79 1020.7
20260503053458 62 178 0.0 0.0 0.00 0.00 0.00 79 1020.5
20260503052957 62 178 0.0 0.0 0.00 0.00 0.00 79 1020.5
20260503052727 62 178 0.0 0.0 0.00 0.00 0.00 79 1020.4
20260503051952 62 178 0.0 0.0 0.00 0.00 0.00 78 1020.5
20260503051452 62 178 0.0 0.0 0.00 0.00 0.00 78 1020.5
20260503050950 62 178 0.0 0.0 0.00 0.00 0.00 78 1020.5
20260503050452 62 178 0.0 0.0 0.00 0.00 0.00 78 1020.5
20260503045949 63 178 0.0 0.0 0.00 0.00 0.00 77 1020.4
20260503045446 63 178 0.0 0.0 0.00 0.00 0.00 77 1020.4
20260503044944 63 178 0.0 0.0 0.00 0.00 0.00 77 1020.4
20260503044716 63 178 0.0 0.0 0.00 0.00 0.00 77 1020.3
20260503043940 63 178 0.0 0.0 0.00 0.00 0.00 77 1020.3
20260503043708 63 178 0.0 0.0 0.00 0.00 0.00 76 1020.2
20260503043209 64 178 0.0 0.0 0.00 0.00 0.00 76 1020.2
20260503043055 64 178 0.0 0.0 0.00 0.00 0.00 76 1020.2
20260503041936 64 178 0.0 0.0 0.00 0.00 0.00 76 1020.2
20260503041432 64 178 0.0 0.0 0.00 0.00 0.00 75 1020.2
20260503040931 64 178 0.0 0.0 0.00 0.00 0.00 75 1020.4
20260503040430 64 178 0.0 0.0 0.00 0.00 0.00 74 1020.3
20260503035930 64 178 0.0 0.0 0.00 0.00 0.00 74 1020.2
20260503035428 64 178 0.0 0.0 0.00 0.00 0.00 74 1020.1
20260503034929 64 178 0.0 0.0 0.00 0.00 0.00 73 1020.1
20260503034419 64 178 0.0 0.0 0.00 0.01 0.00 72 1020.0
20260503033920 64 178 0.0 0.0 0.00 0.01 0.00 71 1020.0
20260503033422 65 178 0.0 0.0 0.00 0.01 0.00 71 1019.8
20260503032917 65 178 0.0 0.0 0.00 0.01 0.00 71 1019.8
20260503032414 65 178 0.0 0.0 0.00 0.01 0.00 70 1019.8
20260503031919 65 178 0.0 0.0 0.00 0.01 0.00 70 1019.7
20260503031914 65 178 0.0 0.0 0.00 0.01 0.00 70 1019.8
20260503030914 65 178 0.0 0.0 0.00 0.01 0.00 69 1019.6
20260503030412 66 178 0.0 0.0 0.00 0.01 0.00 69 1019.6
20260503025912 66 178 0.0 0.0 0.00 0.01 0.00 69 1019.7
20260503025413 66 178 0.0 0.0 0.00 0.01 0.00 68 1019.7
20260503024913 66 178 0.0 0.0 0.00 0.01 0.00 68 1019.7
20260503024408 67 178 0.0 0.0 0.00 0.01 0.00 68 1019.6
20260503024138 67 178 0.0 0.0 0.00 0.01 0.00 67 1019.6
20260503023407 67 178 0.0 0.0 0.00 0.02 0.00 67 1019.6
20260503022906 67 178 0.0 0.0 0.00 0.02 0.00 66 1019.5
20260503022404 67 178 0.0 0.0 0.00 0.02 0.00 65 1019.5
20260503022134 67 178 0.0 0.0 0.00 0.02 0.00 65 1019.4
20260503021636 68 178 0.0 0.0 0.00 0.02 0.00 65 1019.4
20260503021137 68 178 0.0 0.0 0.00 0.03 0.00 64 1019.4
20260503020402 68 178 0.0 0.0 0.00 0.03 0.00 63 1019.4
20260503020137 69 178 0.0 0.0 0.00 0.03 0.00 62 1019.3
20260503015400 69 178 0.0 0.0 0.00 0.03 0.00 61 1019.3
20260503014901 69 178 0.0 0.0 0.00 0.04 0.00 61 1019.1
20260503014629 69 178 0.0 0.0 0.00 0.04 0.00 61 1019.0
20260503013857 69 178 0.0 0.0 0.00 0.04 0.00 60 1018.9
20260503013357 70 178 0.0 0.0 0.00 0.04 0.00 59 1018.8
20260503013127 70 178 0.0 0.0 0.00 0.05 0.00 59 1018.8
20260503012355 70 178 0.0 0.0 0.00 0.05 0.00 59 1018.8
20260503011853 71 178 0.0 1.0 0.00 0.05 0.00 58 1018.7
20260503011356 71 178 0.0 1.0 0.00 0.06 0.00 58 1018.7
20260503010852 71 178 0.0 1.0 0.00 0.06 0.00 57 1018.7
20260503010353 72 178 0.0 1.0 0.00 0.06 0.00 56 1018.7
20260503005850 72 0 0.0 1.0 0.00 0.07 0.00 56 1018.6
20260503005350 72 0 0.0 3.0 0.00 0.07 0.00 56 1018.5
20260503004851 72 178 0.0 3.0 0.00 0.07 0.00 55 1018.4
20260503004350 73 0 0.0 3.0 0.00 0.07 0.00 55 1018.4
20260503003850 73 0 0.0 3.0 0.00 0.07 0.00 54 1018.3
20260503003351 73 0 0.0 2.0 0.00 0.07 0.00 54 1018.2
20260503003122 73 0 0.0 2.0 0.00 0.08 0.00 53 1018.1
20260503002354 74 0 0.0 6.0 0.00 0.08 0.00 54 1018.1
20260503001850 74 0 1.0 6.0 0.00 0.09 0.00 54 1018.1
20260503001350 74 304 1.0 7.0 0.00 0.10 0.00 54 1018.0
20260503000849 74 59 1.0 7.0 0.00 0.10 0.00 52 1018.0
20260503000352 74 316 0.0 4.0 0.00 0.12 0.00 53 1018.1
20260502235851 74 65 0.0 4.0 0.00 0.15 0.00 52 1018.0
20260502235350 74 65 1.0 4.0 0.00 0.18 0.00 52 1018.0
20260502234850 74 65 2.0 9.0 0.00 0.19 0.00 49 1017.9
20260502234351 74 71 2.0 9.0 0.00 0.19 0.00 50 1017.9
20260502233852 74 5 2.0 9.0 0.00 0.20 0.00 52 1017.9
20260502233351 74 327 2.0 9.0 0.00 0.20 0.00 52 1017.8
20260502232849 74 9 2.0 5.0 0.00 0.21 0.00 52 1017.9
20260502232350 74 27 2.0 5.0 0.00 0.21 0.00 52 1017.8
20260502231846 74 24 2.0 13.0 0.00 0.22 0.00 50 1017.8
20260502231615 74 31 2.0 13.0 0.00 0.23 0.00 51 1017.8
20260502230846 75 11 2.0 6.0 0.00 0.23 0.00 49 1017.8
20260502230841 74 0 2.0 5.0 0.00 0.23 0.00 51 1017.8
20260502225845 75 306 2.0 6.0 0.00 0.23 0.00 47 1017.7
20260502225841 75 47 2.0 6.0 0.00 0.23 0.00 46 1017.6
20260502224840 75 5 3.0 11.0 0.00 0.24 0.00 51 1017.6
20260502224339 75 23 3.0 11.0 0.00 0.24 0.00 47 1017.6
20260502223837 75 254 3.0 9.0 0.00 0.24 0.00 49 1017.6
20260502223339 75 313 3.0 9.0 0.00 0.24 0.00 50 1017.7
20260502223107 75 281 2.0 9.0 0.00 0.24 0.00 49 1017.7
20260502222607 75 344 2.0 9.0 0.00 0.24 0.00 49 1017.7
20260502222454 75 81 3.0 9.0 0.00 0.24 0.00 46 1017.7
20260502221330 75 11 2.0 9.0 0.00 0.24 0.00 48 1017.8
20260502220829 75 59 2.0 9.0 0.00 0.25 0.00 44 1017.9
20260502220332 75 32 3.0 9.0 0.00 0.25 0.00 46 1017.8
20260502215829 76 28 3.0 10.0 0.00 0.26 0.00 47 1017.8
20260502215328 76 19 3.0 10.0 0.00 0.28 0.00 48 1017.8
20260502215058 75 355 3.0 9.0 0.00 0.31 0.00 48 1017.9
20260502214329 75 331 3.0 11.0 0.00 0.33 0.00 47 1017.9
20260502213828 75 327 3.0 11.0 0.00 0.35 0.00 49 1017.9
20260502213333 76 49 3.0 11.0 0.00 0.43 0.00 48 1018.0
20260502213329 75 296 3.0 11.0 0.00 0.38 0.00 51 1018.1
20260502212329 76 314 3.0 12.0 0.00 0.49 0.00 51 1018.0
20260502212323 76 306 3.0 10.0 0.00 0.47 0.00 50 1018.1
20260502211321 76 336 3.0 12.0 0.00 0.49 0.00 51 1017.9
20260502211052 76 311 3.0 13.0 0.00 0.49 0.00 52 1018.1
20260502210315 76 60 2.0 13.0 0.00 0.49 0.00 49 1018.1
20260502205814 76 89 1.0 8.0 0.00 0.50 0.00 48 1018.2
20260502205313 76 41 3.0 13.0 0.00 0.51 0.00 52 1018.1
20260502205044 76 334 3.0 13.0 0.00 0.51 0.00 51 1018.2
20260502204313 76 21 2.0 8.0 0.00 0.53 0.00 53 1018.2
20260502203811 76 10 2.0 9.0 0.00 0.56 0.00 50 1018.2